| time (UTC) | temp C | wind direction | speed KPH | gust KPH | rain 1hr cm | rain 24hr cm | rain mn cm | humidity % | barometer mb |
| 20260505153027 | 16 | 217 | 0.0 | 0.0 | 0.00 | 0.00 | 0.00 | 62 | 1012.3 |
| 20260505152508 | 16 | 238 | 0.0 | 0.0 | 0.00 | 0.00 | 0.00 | 61 | 1012.3 |
| 20260505152013 | 16 | 137 | 0.0 | 0.0 | 0.00 | 0.00 | 0.00 | 60 | 1012.3 |
| 20260505151528 | 16 | 300 | 0.0 | 1.6 | 0.00 | 0.00 | 0.00 | 60 | 1012.3 |
| 20260505151009 | 16 | 266 | 0.0 | 4.8 | 0.00 | 0.00 | 0.00 | 59 | 1012.4 |
| 20260505150511 | 16 | 79 | 0.0 | 4.8 | 0.00 | 0.00 | 0.00 | 59 | 1012.4 |
| 20260505140510 | 16 | 186 | 0.0 | 0.0 | 0.00 | 0.00 | 0.00 | 62 | 1012.6 |
| 20260505125011 | 15 | 117 | 0.0 | 0.0 | 0.00 | 0.00 | 0.00 | 61 | 1012.9 |
| 20260505124513 | 16 | 50 | 0.0 | 0.0 | 0.00 | 0.00 | 0.00 | 60 | 1012.9 |
| 20260505123003 | 16 | 144 | 0.0 | 9.7 | 0.00 | 0.00 | 0.00 | 60 | 1012.9 |
| 20260505122503 | 16 | 243 | 1.6 | 9.7 | 0.00 | 0.00 | 0.00 | 61 | 1012.9 |
| 20260505121521 | 16 | 71 | 0.0 | 1.6 | 0.00 | 0.00 | 0.00 | 61 | 1013.0 |
| 20260505120503 | 15 | 236 | 0.0 | 8.0 | 0.00 | 0.00 | 0.00 | 64 | 1013.0 |
| 20260505114511 | 16 | 31 | 0.0 | 9.7 | 0.00 | 0.00 | 0.00 | 63 | 1013.1 |
| 20260505112011 | 14 | 42 | 0.0 | 4.8 | 0.00 | 0.00 | 0.00 | 70 | 1013.2 |
| 20260505111509 | 13 | 79 | 0.0 | 0.0 | 0.00 | 0.00 | 0.00 | 72 | 1013.2 |
| 20260505111003 | 13 | 297 | 0.0 | 0.0 | 0.00 | 0.00 | 0.00 | 73 | 1013.2 |
| 20260505110503 | 13 | 252 | 0.0 | 0.0 | 0.00 | 0.00 | 0.00 | 74 | 1013.3 |
| 20260505102010 | 12 | 230 | 0.0 | 0.0 | 0.00 | 0.00 | 0.00 | 73 | 1013.6 |
| 20260505101517 | 12 | 110 | 0.0 | 4.8 | 0.00 | 0.00 | 0.00 | 73 | 1013.5 |
| 20260505101011 | 13 | 245 | 0.0 | 4.8 | 0.00 | 0.00 | 0.00 | 73 | 1013.5 |
| 20260505100509 | 13 | 259 | 0.0 | 3.2 | 0.00 | 0.00 | 0.00 | 73 | 1013.5 |
| 20260505100028 | 13 | 226 | 0.0 | 6.4 | 0.00 | 0.00 | 0.00 | 74 | 1013.5 |
| 20260505095504 | 13 | 64 | 0.0 | 6.4 | 0.00 | 0.00 | 0.00 | 74 | 1013.5 |
| 20260505095003 | 13 | 94 | 0.0 | 4.8 | 0.00 | 0.00 | 0.00 | 75 | 1013.5 |
| 20260505094004 | 12 | 242 | 0.0 | 3.2 | 0.00 | 0.00 | 0.00 | 76 | 1013.6 |
| 20260505093504 | 12 | 241 | 0.0 | 8.0 | 0.00 | 0.00 | 0.00 | 77 | 1013.6 |
| 20260505093008 | 12 | 123 | 0.0 | 11.3 | 0.00 | 0.00 | 0.00 | 77 | 1013.6 |
| 20260505092504 | 12 | 68 | 1.6 | 11.3 | 0.00 | 0.00 | 0.00 | 78 | 1013.6 |
| 20260505092009 | 12 | 50 | 0.0 | 6.4 | 0.00 | 0.00 | 0.00 | 77 | 1013.6 |
| 20260505091512 | 12 | 246 | 0.0 | 9.7 | 0.00 | 0.00 | 0.00 | 77 | 1013.6 |
| 20260505091008 | 12 | 221 | 0.0 | 9.7 | 0.00 | 0.00 | 0.00 | 77 | 1013.6 |
| 20260505090509 | 12 | 246 | 0.0 | 3.2 | 0.00 | 0.00 | 0.00 | 78 | 1013.7 |
| 20260505090016 | 12 | 159 | 0.0 | 3.2 | 0.00 | 0.00 | 0.00 | 79 | 1013.6 |
| 20260505085507 | 12 | 259 | 0.0 | 0.0 | 0.00 | 0.00 | 0.00 | 80 | 1013.7 |
| 20260505085009 | 12 | 235 | 0.0 | 9.7 | 0.00 | 0.00 | 0.00 | 81 | 1013.8 |
| 20260505084529 | 12 | 245 | 0.0 | 9.7 | 0.00 | 0.00 | 0.00 | 81 | 1013.8 |
| 20260505084009 | 12 | 240 | 0.0 | 4.8 | 0.00 | 0.00 | 0.00 | 82 | 1013.8 |
| 20260505083504 | 12 | 195 | 0.0 | 3.2 | 0.00 | 0.00 | 0.00 | 82 | 1013.8 |
| 20260505083015 | 11 | 22 | 0.0 | 3.2 | 0.00 | 0.00 | 0.00 | 83 | 1013.9 |
| 20260505082507 | 11 | 247 | 0.0 | 1.6 | 0.00 | 0.00 | 0.00 | 83 | 1013.8 |
| 20260505082004 | 11 | 112 | 0.0 | 4.8 | 0.00 | 0.00 | 0.00 | 83 | 1013.8 |
| 20260505081509 | 11 | 240 | 0.0 | 4.8 | 0.00 | 0.00 | 0.00 | 83 | 1013.8 |
| 20260505081009 | 11 | 253 | 0.0 | 3.2 | 0.00 | 0.00 | 0.00 | 84 | 1013.9 |
| 20260505080504 | 11 | 262 | 0.0 | 3.2 | 0.00 | 0.00 | 0.00 | 84 | 1013.8 |
| 20260505080021 | 11 | 120 | 0.0 | 3.2 | 0.00 | 0.00 | 0.00 | 84 | 1013.9 |
| 20260505075508 | 11 | 26 | 0.0 | 3.2 | 0.00 | 0.00 | 0.00 | 84 | 1013.8 |
| 20260505075007 | 11 | 141 | 0.0 | 3.2 | 0.00 | 0.05 | 0.00 | 84 | 1013.7 |
| 20260505074520 | 11 | 234 | 0.0 | 1.6 | 0.00 | 0.05 | 0.00 | 84 | 1013.7 |
| 20260505074007 | 11 | 234 | 0.0 | 1.6 | 0.00 | 0.05 | 0.00 | 84 | 1013.8 |
| 20260505073508 | 11 | 221 | 0.0 | 1.6 | 0.00 | 0.05 | 0.00 | 84 | 1013.8 |
| 20260505073035 | 11 | 227 | 0.0 | 1.6 | 0.00 | 0.05 | 0.00 | 85 | 1013.8 |
| 20260505072508 | 11 | 248 | 0.0 | 0.0 | 0.00 | 0.05 | 0.00 | 85 | 1013.9 |
| 20260505072011 | 11 | 219 | 0.0 | 0.0 | 0.00 | 0.05 | 0.00 | 85 | 1013.8 |
| 20260505071505 | 11 | 219 | 0.0 | 0.0 | 0.00 | 0.05 | 0.00 | 85 | 1013.8 |
| 20260505071005 | 11 | 336 | 0.0 | 0.0 | 0.00 | 0.05 | 0.00 | 85 | 1013.9 |
| 20260505070505 | 11 | 77 | 0.0 | 6.4 | 0.00 | 0.05 | 0.00 | 85 | 1014.1 |
| 20260505070012 | 11 | 245 | 0.0 | 6.4 | 0.00 | 0.05 | 0.00 | 85 | 1014.1 |
| 20260505065506 | 11 | 232 | 0.0 | 0.0 | 0.00 | 0.05 | 0.00 | 85 | 1014.1 |
| 20260505065006 | 11 | 240 | 0.0 | 0.0 | 0.00 | 0.05 | 0.00 | 85 | 1014.1 |
| 20260505064516 | 11 | 157 | 0.0 | 0.0 | 0.00 | 0.05 | 0.00 | 86 | 1014.1 |
| 20260505064007 | 11 | 70 | 0.0 | 0.0 | 0.00 | 0.05 | 0.00 | 86 | 1014.1 |
| 20260505063508 | 11 | 232 | 0.0 | 0.0 | 0.00 | 0.05 | 0.00 | 87 | 1014.0 |
| 20260505063029 | 11 | 226 | 0.0 | 0.0 | 0.00 | 0.05 | 0.00 | 87 | 1013.9 |
| 20260505062509 | 11 | 226 | 0.0 | 0.0 | 0.00 | 0.05 | 0.00 | 87 | 1013.9 |
| 20260505062009 | 10 | 247 | 0.0 | 0.0 | 0.00 | 0.05 | 0.00 | 87 | 1013.9 |
| 20260505061528 | 10 | 228 | 0.0 | 0.0 | 0.00 | 0.05 | 0.00 | 88 | 1013.8 |
| 20260505061010 | 10 | 117 | 0.0 | 0.0 | 0.00 | 0.05 | 0.00 | 88 | 1013.9 |
| 20260505060514 | 10 | 243 | 0.0 | 0.0 | 0.00 | 0.05 | 0.00 | 88 | 1013.9 |
| 20260505060052 | 10 | 75 | 0.0 | 0.0 | 0.00 | 0.05 | 0.00 | 88 | 1013.9 |
| 20260505055512 | 10 | 242 | 0.0 | 0.0 | 0.00 | 0.05 | 0.00 | 88 | 1013.9 |
| 20260505055014 | 10 | 242 | 0.0 | 0.0 | 0.00 | 0.05 | 0.00 | 89 | 1013.9 |
| 20260505054518 | 10 | 254 | 0.0 | 0.0 | 0.00 | 0.05 | 0.00 | 89 | 1013.9 |
| 20260505054017 | 10 | 72 | 0.0 | 0.0 | 0.00 | 0.05 | 0.00 | 89 | 1013.9 |
| 20260505053508 | 10 | 71 | 0.0 | 0.0 | 0.00 | 0.05 | 0.00 | 89 | 1014.0 |
| 20260505053016 | 10 | 248 | 0.0 | 0.0 | 0.00 | 0.05 | 0.00 | 89 | 1014.0 |
| 20260505052508 | 10 | 248 | 0.0 | 0.0 | 0.00 | 0.05 | 0.00 | 89 | 1014.0 |
| 20260505052008 | 10 | 248 | 0.0 | 0.0 | 0.00 | 0.05 | 0.00 | 89 | 1014.0 |
| 20260505051520 | 10 | 245 | 0.0 | 0.0 | 0.00 | 0.05 | 0.00 | 89 | 1014.0 |
| 20260505051010 | 10 | 250 | 0.0 | 0.0 | 0.00 | 0.05 | 0.00 | 89 | 1014.0 |
| 20260505050510 | 10 | 243 | 0.0 | 0.0 | 0.00 | 0.05 | 0.00 | 89 | 1014.1 |
| 20260505041507 | 10 | 158 | 0.0 | 0.0 | 0.00 | 0.05 | 0.00 | 89 | 1014.2 |
| 20260505041002 | 10 | 158 | 0.0 | 0.0 | 0.00 | 0.05 | 0.00 | 89 | 1014.2 |
| 20260505040502 | 10 | 158 | 0.0 | 0.0 | 0.00 | 0.05 | 0.00 | 89 | 1014.2 |
| 20260505040006 | 10 | 155 | 0.0 | 0.0 | 0.00 | 0.05 | 0.00 | 89 | 1014.2 |
| 20260505035502 | 10 | 221 | 0.0 | 0.0 | 0.00 | 0.05 | 0.00 | 89 | 1014.2 |
| 20260505035006 | 10 | 221 | 0.0 | 0.0 | 0.00 | 0.05 | 0.00 | 89 | 1014.3 |
| 20260505034512 | 10 | 221 | 0.0 | 0.0 | 0.00 | 0.05 | 0.00 | 89 | 1014.2 |
| 20260505034008 | 10 | 221 | 0.0 | 0.0 | 0.00 | 0.05 | 0.00 | 89 | 1014.3 |
| 20260505033505 | 10 | 221 | 0.0 | 0.0 | 0.00 | 0.05 | 0.00 | 89 | 1014.3 |
| 20260505033012 | 10 | 221 | 0.0 | 0.0 | 0.00 | 0.05 | 0.00 | 89 | 1014.3 |
| 20260505032510 | 10 | 221 | 0.0 | 0.0 | 0.00 | 0.05 | 0.00 | 89 | 1014.2 |
| 20260505032011 | 10 | 221 | 0.0 | 0.0 | 0.00 | 0.05 | 0.00 | 89 | 1014.2 |
| 20260505030506 | 9 | 221 | 0.0 | 0.0 | 0.00 | 0.05 | 0.00 | 89 | 1014.2 |
| 20260505030004 | 10 | 221 | 0.0 | 0.0 | 0.00 | 0.05 | 0.00 | 89 | 1014.1 |
| 20260505025505 | 10 | 221 | 0.0 | 0.0 | 0.00 | 0.05 | 0.00 | 89 | 1014.2 |
| 20260505025003 | 10 | 221 | 0.0 | 0.0 | 0.00 | 0.05 | 0.00 | 89 | 1014.3 |
| 20260505024508 | 10 | 221 | 0.0 | 0.0 | 0.00 | 0.05 | 0.00 | 89 | 1014.2 |
| 20260505024002 | 10 | 221 | 0.0 | 0.0 | 0.00 | 0.05 | 0.00 | 89 | 1014.1 |
| 20260505023505 | 10 | 221 | 0.0 | 0.0 | 0.00 | 0.05 | 0.00 | 89 | 1014.1 |
| 20260505023011 | 10 | 221 | 0.0 | 0.0 | 0.00 | 0.05 | 0.00 | 89 | 1014.2 |
| 20260505022506 | 9 | 221 | 0.0 | 0.0 | 0.00 | 0.05 | 0.00 | 89 | 1014.2 |
| 20260505022005 | 9 | 221 | 0.0 | 0.0 | 0.00 | 0.05 | 0.00 | 89 | 1014.2 |
| 20260505021513 | 9 | 221 | 0.0 | 0.0 | 0.00 | 0.05 | 0.00 | 88 | 1014.2 |
| 20260505021008 | 9 | 221 | 0.0 | 0.0 | 0.00 | 0.05 | 0.00 | 88 | 1014.4 |
| 20260505020506 | 9 | 221 | 0.0 | 0.0 | 0.00 | 0.05 | 0.00 | 87 | 1014.4 |
| 20260505015006 | 10 | 221 | 0.0 | 0.0 | 0.00 | 0.05 | 0.00 | 87 | 1014.2 |
| 20260505014002 | 10 | 221 | 0.0 | 0.0 | 0.00 | 0.05 | 0.00 | 86 | 1014.5 |
| 20260505013502 | 10 | 255 | 0.0 | 0.0 | 0.00 | 0.05 | 0.00 | 86 | 1014.3 |
| 20260505013010 | 10 | 94 | 0.0 | 0.0 | 0.00 | 0.05 | 0.00 | 86 | 1014.3 |
| 20260505012503 | 10 | 310 | 0.0 | 0.0 | 0.00 | 0.05 | 0.00 | 86 | 1014.4 |
| 20260505012006 | 11 | 237 | 0.0 | 0.0 | 0.00 | 0.05 | 0.00 | 86 | 1014.5 |
| 20260505011510 | 11 | 237 | 0.0 | 0.0 | 0.00 | 0.05 | 0.00 | 86 | 1014.6 |
| 20260505011007 | 11 | 114 | 0.0 | 0.0 | 0.00 | 0.05 | 0.00 | 86 | 1014.7 |
| 20260505010506 | 11 | 257 | 0.0 | 0.0 | 0.00 | 0.05 | 0.00 | 86 | 1014.7 |
| 20260505010018 | 11 | 257 | 0.0 | 0.0 | 0.00 | 0.05 | 0.00 | 85 | 1014.7 |
| 20260505005508 | 11 | 257 | 0.0 | 0.0 | 0.00 | 0.05 | 0.00 | 85 | 1014.8 |
| 20260505005008 | 11 | 257 | 0.0 | 0.0 | 0.00 | 0.05 | 0.00 | 85 | 1014.8 |
| 20260505002509 | 11 | 257 | 0.0 | 0.0 | 0.00 | 0.05 | 0.00 | 84 | 1014.9 |
| 20260505002005 | 11 | 257 | 0.0 | 0.0 | 0.00 | 0.05 | 0.00 | 84 | 1014.8 |
| 20260505001508 | 11 | 257 | 0.0 | 0.0 | 0.00 | 0.05 | 0.00 | 84 | 1014.8 |
| 20260505001008 | 11 | 252 | 0.0 | 0.0 | 0.00 | 0.05 | 0.00 | 84 | 1014.9 |
| 20260505000506 | 11 | 252 | 0.0 | 0.0 | 0.00 | 0.05 | 0.00 | 84 | 1014.9 |
| 20260505000014 | 11 | 252 | 0.0 | 0.0 | 0.00 | 0.05 | 0.00 | 84 | 1014.9 |
| 20260504235506 | 11 | 252 | 0.0 | 0.0 | 0.00 | 0.05 | 0.00 | 84 | 1014.9 |
| 20260504235008 | 11 | 35 | 0.0 | 0.0 | 0.00 | 0.05 | 0.00 | 84 | 1015.0 |
| 20260504234518 | 11 | 60 | 0.0 | 0.0 | 0.00 | 0.05 | 0.00 | 84 | 1015.0 |
| 20260504234007 | 11 | 63 | 0.0 | 4.8 | 0.00 | 0.05 | 0.00 | 84 | 1015.0 |
| 20260504231519 | 12 | 32 | 0.0 | 0.0 | 0.00 | 0.05 | 0.00 | 84 | 1015.2 |
| 20260504231009 | 12 | 32 | 0.0 | 0.0 | 0.00 | 0.05 | 0.00 | 84 | 1015.2 |
| 20260504230509 | 12 | 103 | 0.0 | 0.0 | 0.00 | 0.05 | 0.00 | 84 | 1015.1 |
| 20260504230012 | 12 | 75 | 0.0 | 0.0 | 0.00 | 0.05 | 0.00 | 84 | 1015.2 |
| 20260504225507 | 12 | 105 | 0.0 | 0.0 | 0.00 | 0.05 | 0.05 | 84 | 1015.2 |
| 20260504225007 | 12 | 63 | 0.0 | 0.0 | 0.00 | 0.05 | 0.05 | 84 | 1015.1 |
| 20260504224519 | 12 | 183 | 0.0 | 0.0 | 0.00 | 0.05 | 0.05 | 84 | 1015.1 |
| 20260504224007 | 12 | 78 | 0.0 | 0.0 | 0.00 | 0.05 | 0.05 | 84 | 1015.1 |
| 20260504222512 | 12 | 0.0 | 0.0 | 0.00 | 0.05 | 0.05 | 1015.1 | ||
| 20260504222009 | 12 | 239 | 0.0 | 0.0 | 0.00 | 0.05 | 0.05 | 1015.1 | |
| 20260504221523 | 12 | 181 | 0.0 | 3.2 | 0.00 | 0.05 | 0.05 | 82 | 1015.2 |
| 20260504220508 | 12 | 75 | 0.0 | 0.0 | 0.00 | 0.05 | 0.05 | 82 | 1015.3 |
| 20260504220020 | 12 | 93 | 0.0 | 0.0 | 0.00 | 0.05 | 0.05 | 82 | 1015.3 |
| 20260504215510 | 12 | 94 | 0.0 | 0.0 | 0.00 | 0.05 | 0.05 | 82 | 1015.3 |
| 20260504215009 | 12 | 94 | 0.0 | 0.0 | 0.00 | 0.05 | 0.05 | 82 | 1015.3 |
| 20260504214511 | 12 | 96 | 0.0 | 0.0 | 0.00 | 0.05 | 0.05 | 81 | 1015.3 |
| 20260504214013 | 12 | 245 | 0.0 | 0.0 | 0.00 | 0.05 | 0.05 | 1015.4 | |
| 20260504213507 | -17 | 0.0 | 0.0 | 0.00 | 0.05 | 0.05 | 1015.4 | ||
| 20260504213027 | -17 | 254 | 0.0 | 0.0 | 0.00 | 0.05 | 0.05 | 1015.4 | |
| 20260504212509 | -17 | 0.0 | 0.0 | 0.00 | 0.05 | 0.05 | 1015.5 | ||
| 20260504212009 | -17 | 0.0 | 0.0 | 0.00 | 0.05 | 0.05 | 1015.4 | ||
| 20260504211534 | -17 | 0.0 | 0.0 | 0.00 | 0.05 | 0.05 | 1015.4 | ||
| 20260504211007 | -17 | 0.0 | 0.0 | 0.00 | 0.05 | 0.05 | 1015.4 | ||
| 20260504205508 | -17 | 0.0 | 0.0 | 0.00 | 0.05 | 0.05 | 1015.4 | ||
| 20260504205007 | 13 | 0.0 | 0.0 | 0.00 | 0.05 | 0.05 | 81 | 1015.4 | |
| 20260504204524 | 13 | 0.0 | 0.0 | 0.00 | 0.05 | 0.05 | 81 | 1015.4 | |
| 20260504204011 | 13 | 228 | 0.0 | 0.0 | 0.00 | 0.05 | 0.05 | 81 | 1015.4 |
| 20260504203514 | 13 | 262 | 0.0 | 0.0 | 0.00 | 0.05 | 0.05 | 81 | 1015.4 |
| 20260504203021 | 13 | 89 | 0.0 | 0.0 | 0.00 | 0.05 | 0.05 | 81 | 1015.4 |
| 20260504202011 | 13 | 72 | 0.0 | 0.0 | 0.00 | 0.05 | 0.05 | 81 | 1015.4 |
| 20260504201523 | 13 | 94 | 0.0 | 0.0 | 0.00 | 0.05 | 0.05 | 80 | 1015.3 |
| 20260504201009 | 13 | 338 | 0.0 | 0.0 | 0.00 | 0.05 | 0.05 | 80 | 1015.3 |
| 20260504200507 | -17 | 26 | 0.0 | 0.0 | 0.00 | 0.05 | 0.05 | 1015.3 | |
| 20260504200026 | 13 | 0.0 | 0.0 | 0.00 | 0.05 | 0.05 | 80 | 1015.2 | |
| 20260504195004 | 13 | 70 | 0.0 | 0.0 | 0.00 | 0.05 | 0.05 | 80 | 1015.1 |
| 20260504194509 | 13 | 237 | 0.0 | 0.0 | 0.00 | 0.05 | 0.05 | 80 | 1015.0 |
| 20260504194010 | 13 | 260 | 0.0 | 0.0 | 0.00 | 0.05 | 0.05 | 79 | 1015.0 |
| 20260504193505 | 13 | 260 | 0.0 | 0.0 | 0.00 | 0.05 | 0.05 | 79 | 1015.0 |
| 20260504193012 | 13 | 328 | 0.0 | 0.0 | 0.00 | 0.05 | 0.05 | 79 | 1015.0 |
| 20260504192508 | 13 | 74 | 0.0 | 0.0 | 0.00 | 0.05 | 0.05 | 79 | 1015.0 |
| 20260504192010 | 13 | 74 | 0.0 | 0.0 | 0.00 | 0.05 | 0.05 | 79 | 1015.0 |
| 20260504191516 | 14 | 43 | 0.0 | 0.0 | 0.00 | 0.05 | 0.05 | 79 | 1015.0 |
| 20260504191011 | 14 | 0.0 | 0.0 | 0.00 | 0.05 | 0.05 | 79 | 1015.0 | |
| 20260504190510 | 14 | 86 | 0.0 | 0.0 | 0.00 | 0.05 | 0.05 | 79 | 1014.9 |
| 20260504184503 | 14 | 72 | 0.0 | 4.8 | 0.00 | 0.05 | 0.05 | 78 | 1014.9 |
| 20260504184012 | 14 | 264 | 0.0 | 4.8 | 0.00 | 0.05 | 0.05 | 78 | 1014.8 |
| 20260504183505 | 14 | 40 | 0.0 | 3.2 | 0.00 | 0.05 | 0.05 | 78 | 1014.8 |
| 20260504183010 | 14 | 61 | 0.0 | 0.0 | 0.00 | 0.05 | 0.05 | 77 | 1014.7 |
| 20260504182510 | 14 | 75 | 0.0 | 6.4 | 0.00 | 0.05 | 0.05 | 77 | 1014.7 |
| 20260504182013 | 14 | 63 | 0.0 | 8.0 | 0.00 | 0.05 | 0.05 | 77 | 1014.7 |
| 20260504181524 | 15 | 85 | 0.0 | 6.4 | 0.00 | 0.05 | 0.05 | 76 | 1014.7 |
| 20260504181010 | 15 | 88 | 0.0 | 6.4 | 0.00 | 0.05 | 0.05 | 76 | 1014.7 |
| 20260504180512 | 15 | 96 | 0.0 | 0.0 | 0.00 | 0.05 | 0.05 | 76 | 1014.7 |
| 20260504180026 | 15 | 50 | 0.0 | 0.0 | 0.00 | 0.05 | 0.05 | 76 | 1014.7 |
| 20260504175507 | 15 | 0.0 | 0.0 | 0.00 | 0.05 | 0.05 | 76 | 1014.6 | |
| 20260504175018 | 15 | 72 | 0.0 | 4.8 | 0.00 | 0.05 | 0.05 | 76 | 1014.5 |
| 20260504174525 | 15 | 233 | 0.0 | 1.6 | 0.00 | 0.05 | 0.05 | 76 | 1014.5 |
| 20260504174011 | 15 | 80 | 0.0 | 6.4 | 0.00 | 0.05 | 0.05 | 75 | 1014.4 |
| 20260504172505 | 15 | 135 | 0.0 | 9.7 | 0.00 | 0.05 | 0.05 | 76 | 1014.3 |
| 20260504172005 | 15 | 30 | 0.0 | 9.7 | 0.00 | 0.05 | 0.05 | 75 | 1014.3 |
| 20260504171508 | 15 | 345 | 0.0 | 6.4 | 0.00 | 0.05 | 0.05 | 75 | 1014.4 |
| 20260504171014 | 15 | 91 | 0.0 | 8.0 | 0.00 | 0.05 | 0.05 | 75 | 1014.4 |